Waarnemingen

Advertentie
Mijn weer
Andernach, Duitsland (10520): temperatuur & dauwpunt: 16.11.2017 08:00:00 - 22.11.2017 08:00:00 (CET)Andernach, Duitsland (10520): temperatuur 5cm & temperatuur -5cm: 16.11.2017 08:00:00 - 22.11.2017 08:00:00 (CET)Andernach, Duitsland (10520): temperatuur -20cm & temperatuur -100cm: 16.11.2017 08:00:00 - 22.11.2017 08:00:00 (CET)Andernach, Duitsland (10520): windsnelheid & windstoten: 16.11.2017 08:00:00 - 22.11.2017 08:00:00 (CET)Andernach, Duitsland (10520): windrichting: 16.11.2017 08:00:00 - 22.11.2017 08:00:00 (CET)Andernach, Duitsland (10520): luchtdruk: 16.11.2017 08:00:00 - 22.11.2017 08:00:00 (CET)Andernach, Duitsland (10520): zicht: 16.11.2017 08:00:00 - 22.11.2017 08:00:00 (CET)Andernach, Duitsland (10520): Zonneschijnduur: 16.11.2017 08:00:00 - 22.11.2017 08:00:00 (CET)Andernach, Duitsland (10520): neerslag: 16.11.2017 08:00:00 - 22.11.2017 08:00:00 (CET)
Datum & Tijd tt [°C] td [°C] tt 5cm [°C] tt -5cm [°C] tt -20cm [°C] tt -100cm [°C] ff [km/u] ff [kn] fx [km/u] fx [kn] dd ppp [hPa] vv [km] sd [min] rr [mm]
22.11.2017 08:00:00 9,7 5,7 8,6 7,2 7,2 10,5 12 6 23 13 ZZW 1010,9 29 0 0,0
22.11.2017 07:00:00 9,6 5,8 8,7 7,2 7,2 10,5 7 4 15 8 Z 1011,0 31 0 0,0
22.11.2017 06:00:00 9,5 5,9 8,7 7,2 7,2 10,5 7 4 19 11 ZZW 1011,5 35 0 0,0
22.11.2017 05:00:00 9,3 5,8 8,5 7,2 7,2 10,5 10 5 21 11 Z 1011,8 35 0 0,0
22.11.2017 04:00:00 9,0 5,6 8,3 7,1 7,2 10,5 11 6 18 10 Z 1012,1 33 0 0,0
22.11.2017 03:00:00 8,8 5,5 8,1 7,1 7,3 10,5 6 4 18 10 Z 1012,7 31 0 0,0
22.11.2017 02:00:00 8,6 5,4 8,0 7,1 7,3 10,5 11 6 27 15 Z 1012,9 30 0 0,0
22.11.2017 01:00:00 8,7 5,2 8,0 7,2 7,3 10,5 8 5 14 8 Z 1013,5 28 0 0,0
22.11.2017 00:00:00 8,9 5,1 8,1 7,2 7,3 10,5 9 5 16 9 ZW 1014,0 35 0 0,0
21.11.2017 23:00:00 8,8 5,1 8,0 7,3 7,4 10,5 8 5 18 10 ZZW 1014,0 35 0 0,0
21.11.2017 22:00:00 8,7 5,2 8,0 7,3 7,4 10,5 9 5 20 11 ZZW 1014,1 39 0 0,0
21.11.2017 21:00:00 8,4 5,4 7,9 7,4 7,4 10,5 12 7 27 15 ZZW 1014,0 28 0 0,0
21.11.2017 20:00:00 8,7 5,3 8,2 7,6 7,4 10,5 18 10 32 17 ZZW 1014,2 24 0 0,0
21.11.2017 19:00:00 9,6 5,0 8,6 7,7 7,5 10,5 23 12 39 21 ZW 1014,0 45 0 0,0
21.11.2017 18:00:00 9,9 5,5 8,9 8,0 7,4 10,6 14 7 23 12 ZW 1014,0 42 0 0,0
21.11.2017 17:00:00 10,5 5,5 9,3 8,4 7,4 10,6 10 5 21 11 WZW 1013,9 59 0 0,0
21.11.2017 16:00:00 11,0 6,1 9,7 8,9 7,2 10,6 10 6 23 12 WZW 1014,0 70 0 0,0
21.11.2017 15:00:00 11,2 7,6 10,7 8,9 7,1 10,6 12 6 24 13 WZW 1013,8 70 0 0,0
21.11.2017 14:00:00 11,0 7,8 10,7 9,0 6,9 10,6 15 8 29 16 ZW 1013,8 70 0 0,0
21.11.2017 13:00:00 12,0 8,0 10,9 8,7 6,8 10,6 18 10 27 15 ZW 1013,6 70 0 0,0
21.11.2017 12:00:00 11,8 8,2 10,3 8,3 6,6 10,6 11 6 25 13 ZW 1014,0 70 0 0,2
21.11.2017 11:00:00 11,2 7,9 10,1 7,8 6,5 10,6 10 6 24 13 ZW 1014,2 70 0 0,3
21.11.2017 10:00:00 10,5 7,6 9,5 7,4 6,4 10,6 9 5 26 14 WZW 1014,0 70 0 0,0
21.11.2017 09:00:00 9,5 7,8 8,6 7,1 6,3 10,6 9 5 25 14 ZW 1014,1 14 0 0,2
21.11.2017 08:00:00 9,7 7,5 8,4 6,9 6,3 10,6 10 5 29 16 ZW 1013,9 8 0 0,1
21.11.2017 07:00:00 9,9 7,1 9,0 6,7 6,2 10,6 10 6 26 14 WZW 1013,7 70 0 0,0
21.11.2017 06:00:00 9,5 6,8 7,9 6,7 6,1 10,6 7 4 28 15 WZW 1013,8 70 0 0,0
21.11.2017 05:00:00 9,9 7,0 9,0 6,6 6,1 10,6 16 9 26 14 ZW 1013,6 70 0 0,0
21.11.2017 04:00:00 9,9 6,9 8,9 6,2 6,0 10,6 13 7 23 12 WZW 1013,5 70 0 0,0
21.11.2017 03:00:00 9,1 6,5 8,1 6,3 6,0 10,7 3 2 26 14 ZW 1013,7 70 0 0,0
21.11.2017 02:00:00 8,5 6,1 7,8 6,2 5,9 10,7 17 9 27 15 ZW 1013,7 70 0 0,0
21.11.2017 01:00:00 8,8 5,8 7,6 6,1 5,8 10,7 14 8 35 19 WZW 1013,9 70 0 0,0
21.11.2017 00:00:00 9,0 5,7 8,3 6,0 5,7 10,7 22 12 41 22 ZW 1013,6 70 0 0,0
20.11.2017 23:00:00 8,6 5,5 7,6 5,8 5,7 10,7 24 13 40 22 ZW 1013,5 70 0 0,0
20.11.2017 22:00:00 8,4 5,3 7,1 5,5 5,6 10,7 17 9 32 18 ZW 1013,7 70 0 0,2
20.11.2017 21:00:00 7,6 5,0 6,8 5,2 5,6 10,7 6 3 15 8 ZZW 1014,4 69 0 0,0
20.11.2017 20:00:00 6,2 4,0 5,5 5,1 5,6 10,7 4 2 24 13 ZO 1014,8 70 0 0,0
20.11.2017 19:00:00 6,3 3,5 5,2 5,0 5,6 10,7 16 8 27 14 ZW 1014,9 70 0 0,2
20.11.2017 18:00:00 5,3 3,2 4,4 4,9 5,6 10,7 8 4 21 12 Z 1015,5 8 0 0,1
20.11.2017 17:00:00 5,2 2,7 4,3 5,0 5,6 10,7 7 4 16 9 ZZW 1016,2 39 0 0,1
20.11.2017 16:00:00 4,8 2,7 4,1 5,1 5,5 10,7 7 4 16 8 Z 1017,0 13 0 0,8
20.11.2017 15:00:00 4,7 3,0 4,2 5,3 5,5 10,7 10 5 23 12 ZZW 1017,9 12 0 0,9
20.11.2017 14:00:00 4,9 3,0 4,6 5,2 5,4 10,7 7 4 20 11 Z 1019,1 10 0 0,6
20.11.2017 13:00:00 4,6 2,3 4,3 5,0 5,3 10,7 9 5 22 12 Z 1019,8 13 0 0,2
20.11.2017 12:00:00 4,5 1,9 4,3 4,8 5,3 10,8 11 6 22 12 Z 1020,7 18 0 0,0
20.11.2017 11:00:00 4,5 1,8 4,2 4,4 5,3 10,8 8 4 21 12 Z 1021,7 21 0 0,0
20.11.2017 10:00:00 4,4 1,5 3,5 3,8 5,3 10,8 4 2 19 10 WNW 1022,3 18 0 0,2
20.11.2017 09:00:00 3,8 1,0 3,4 3,6 5,4 10,8 9 5 18 10 ZW 1022,3 24 0 0,0
20.11.2017 08:00:00 3,7 1,2 3,0 3,6 5,5 10,8 6 3 19 10 ZZW 1022,2 23 0 0,0
20.11.2017 07:00:00 3,6 1,1 2,5 3,6 5,6 10,8 6 4 14 8 WZW 1022,1 31 0 0,0
20.11.2017 06:00:00 3,9 1,3 3,0 3,8 5,6 10,8 9 5 16 9 ZZW 1022,1 38 0 0,0
20.11.2017 05:00:00 3,8 1,0 2,2 4,2 5,7 10,8 4 2 19 10 Z 1022,1 40 0 0,0
20.11.2017 04:00:00 5,4 1,0 4,3 4,4 5,7 10,8 10 5 20 11 ZW 1022,2 61 0 0,0
20.11.2017 03:00:00 6,0 0,9 4,6 4,6 5,8 10,8 7 4 18 10 WNW 1022,3 63 0 0,0
20.11.2017 02:00:00 5,6 1,9 4,6 4,8 5,8 10,8 9 5 20 11 WZW 1022,0 51 0 0,0
20.11.2017 01:00:00 6,3 2,4 5,2 4,9 5,8 10,8 4 2 18 10 W 1022,8 55 0 0,0
20.11.2017 00:00:00 6,6 2,4 5,4 4,9 5,8 10,8 11 6 24 13 W 1022,7 57 0 0,1
19.11.2017 23:00:00 6,7 2,3 5,0 4,9 5,8 10,8 9 5 26 14 WNW 1022,5 54 0 0,1
19.11.2017 22:00:00 7,0 2,4 5,9 4,9 5,9 10,8 8 5 26 14 W 1022,1 66 0 0,0
19.11.2017 21:00:00 7,2 2,1 6,0 4,9 5,9 10,8 13 7 29 15 W 1021,4 53 0 0,0
19.11.2017 20:00:00 7,4 2,0 6,3 5,0 5,9 10,9 13 7 32 17 WNW 1020,8 55 0 0,0
19.11.2017 19:00:00 7,2 2,1 5,8 5,2 6,0 10,9 14 8 29 16 WNW 1020,3 47 0 0,0
19.11.2017 18:00:00 7,0 1,9 5,1 5,4 5,9 10,9 12 6 27 15 W 1019,7 54 0 0,0
19.11.2017 17:00:00 7,8 1,6 6,4 5,8 5,9 10,9 13 7 31 17 WNW 1019,4 59 1 0,0
19.11.2017 16:00:00 8,0 1,6 6,7 6,4 5,7 10,9 14 8 36 19 W 1018,9 64 25 0,0
19.11.2017 15:00:00 8,5 1,9 6,8 6,6 5,6 10,9 17 9 33 18 WNW 1018,7 55 39 0,0
19.11.2017 14:00:00 8,2 2,1 6,2 6,3 5,4 10,9 13 7 35 19 WNW 1018,4 53 11 0,0
19.11.2017 13:00:00 7,9 2,5 6,7 6,2 5,2 10,9 16 8 33 18 NW 1018,5 56 6 0,0
19.11.2017 12:00:00 6,6 3,9 6,4 5,0 5,1 10,9 2 1 14 8 ZZO 1018,6 56 3 0,4
19.11.2017 11:00:00 6,0 2,9 6,0 3,9 5,2 10,9 6 3 11 6 NW 1018,7 47 6 0,0
19.11.2017 10:00:00 3,2 2,1 3,1 2,8 5,3 10,9 2 1 4 2 Z 1018,3 34 2 0,0
19.11.2017 09:00:00 2,0 1,2 0,0 2,7 5,4 10,9 3 2 8 4 ZW 1017,7 35 0 0,0
19.11.2017 08:00:00 2,7 1,6 0,1 3,3 5,5 10,9 6 3 11 6 WZW 1017,3 34 0 0,0
19.11.2017 07:00:00 4,5 2,7 2,1 4,2 5,5 10,9 6 4 21 11 WNW 1016,5 36 0 0,0
19.11.2017 06:00:00 5,2 3,0 4,1 4,3 5,6 10,9 8 4 14 8 NNW 1016,0 63 0 0,0
19.11.2017 05:00:00 4,2 3,5 3,6 4,3 5,6 10,9 3 2 15 8 ZW 1016,0 62 0 0,1
19.11.2017 04:00:00 4,3 3,0 3,2 4,5 5,6 10,9 8 4 27 14 NW 1015,6 37 0 1,2
19.11.2017 03:00:00 4,8 4,0 4,1 4,4 5,6 10,9 4 2 10 6 ZO 1015,3 23 0 0,4
19.11.2017 02:00:00 4,6 3,6 3,7 4,5 5,6 10,9 0 0 13 7 N 1015,7 31 0 0,6
19.11.2017 01:00:00 4,9 3,5 4,1 4,5 5,6 11,0 4 2 18 10 ZZW 1016,2 6 0 1,7
19.11.2017 00:00:00 5,7 2,6 5,1 4,4 5,7 11,0 11 6 26 14 WZW 1016,8 34 0 0,0
18.11.2017 23:00:00 5,4 2,2 4,6 4,2 5,7 11,0 7 4 22 12 ZW 1017,0 32 0 0,0
18.11.2017 22:00:00 5,1 1,7 4,3 4,2 5,8 11,0 18 10 34 19 ZW 1017,6 30 0 0,0
18.11.2017 21:00:00 5,5 1,6 4,4 4,4 5,8 11,0 15 8 30 16 ZW 1017,9 37 0 0,0
18.11.2017 20:00:00 5,5 1,5 4,4 4,6 5,8 11,0 16 9 29 16 ZW 1018,3 38 0 0,0
18.11.2017 19:00:00 5,7 1,5 4,1 4,6 5,8 11,0 12 6 19 10 WZW 1018,9 46 0 0,1
18.11.2017 18:00:00 4,9 1,2 4,2 4,6 5,8 11,0 5 3 15 8 Z 1019,0 37 0 0,0
18.11.2017 17:00:00 5,2 0,7 4,5 4,8 5,8 11,0 10 6 27 15 ZZW 1019,4 41 0 0,0
18.11.2017 16:00:00 6,3 0,0 5,7 5,3 5,8 11,0 15 8 32 17 WZW 1019,5 64 0 0,0
18.11.2017 15:00:00 6,4 -0,3 6,1 5,3 5,7 11,0 16 9 29 16 WZW 1020,0 70 0 0,0
18.11.2017 14:00:00 6,3 0,0 5,9 5,5 5,5 11,0 14 8 32 18 W 1021,0 59 0 0,0
18.11.2017 13:00:00 6,1 0,0 6,1 5,3 5,4 11,0 17 9 32 18 WZW 1021,5 52 0 0,0
18.11.2017 12:00:00 5,1 0,9 5,5 5,4 5,3 11,0 13 7 26 14 WZW 1022,5 41 19 0,0
18.11.2017 11:00:00 1,4 0,7 3,9 3,9 5,3 11,0 4 2 8 4 NO 1023,6 10 10 0,0
18.11.2017 10:00:00 -0,6 -0,8 0,6 3,2 5,4 11,0 4 2 7 4 ZZW 1024,4 2,5 0 0,0
18.11.2017 09:00:00 -0,6 -0,6 0,0 2,8 5,4 11,0 4 2 8 5 W 1024,7 1,2 0 0,0
18.11.2017 08:00:00 -0,3 -0,4 0,2 2,8 5,5 11,0 4 2 6 4 WNW 1024,5 1,3 0 0,0
18.11.2017 07:00:00 -0,2 -0,2 0,0 2,8 5,6 11,0 3 2 6 3 ZW 1024,5 0,4 0 0,0
18.11.2017 06:00:00 -0,4 -0,4 -0,1 2,9 5,8 11,0 4 2 8 4 ZZW 1024,9 0,2 0 0,0
18.11.2017 05:00:00 0,2 0,2 0,4 2,9 5,9 11,0 6 3 9 5 ZZW 1025,1 0,2 0 0,0
18.11.2017 04:00:00 0,6 0,5 0,5 2,7 6,1 11,0 6 3 9 5 Z 1025,5 0,1 0 0,0
18.11.2017 03:00:00 0,3 0,1 0,0 2,7 6,3 11,0 3 1 5 3 Z 1026,2 0,5 0 0,0
18.11.2017 02:00:00 0,7 0,4 -1,4 2,8 6,6 11,1 4 2 7 4 NW 1026,1 7 0 0,0
18.11.2017 01:00:00 0,0 -0,5 -2,9 3,2 6,8 11,1 3 1 6 4 ZZW 1026,3 8 0 0,0
18.11.2017 00:00:00 1,7 0,9 -1,4 4,0 7,0 11,1 4 2 12 7 ZW 1026,6 15 0 0,0
17.11.2017 23:00:00 3,4 2,5 0,1 4,9 7,2 11,1 6 4 13 7 NNW 1026,6 13 0 0,0
17.11.2017 22:00:00 5,1 2,8 2,6 5,8 7,3 11,1 8 4 14 8 NW 1026,4 23 0 0,0
17.11.2017 21:00:00 5,7 3,7 4,8 6,0 7,4 11,1 6 4 12 6 N 1027,0 24 0 0,0
17.11.2017 20:00:00 6,5 3,4 3,9 6,7 7,5 11,1 7 4 16 8 NW 1026,5 31 0 0,0
17.11.2017 19:00:00 7,5 3,9 5,6 7,1 7,5 11,1 5 3 11 6 NNW 1026,6 37 0 0,0
17.11.2017 18:00:00 7,9 4,8 6,3 7,5 7,5 11,1 6 3 10 6 NNW 1026,5 25 0 0,0
17.11.2017 17:00:00 8,0 5,2 6,3 8,0 7,4 11,1 0 0 10 5 N 1026,5 20 1 0,0
17.11.2017 16:00:00 8,6 5,6 7,2 8,5 7,3 11,1 4 2 7 4 W 1026,7 17 0 0,0
17.11.2017 15:00:00 8,8 6,5 8,1 8,9 7,1 11,1 3 2 6 3 ZZW 1026,7 11 1 0,0
17.11.2017 14:00:00 8,5 6,7 8,8 8,5 6,9 11,1 3 2 7 4 ZO 1027,0 7 10 0,0
17.11.2017 13:00:00 7,2 6,0 7,5 7,8 6,8 11,1 3 1 5 3 OZO 1027,2 4,3 0 0,0
17.11.2017 12:00:00 6,7 5,9 6,9 7,4 6,7 11,1 3 2 6 4 Z 1027,6 4,5 0 0,0
17.11.2017 11:00:00 6,5 5,7 7,1 6,8 6,7 11,1 3 2 7 4 Z 1027,7 4,5 0 0,0
17.11.2017 10:00:00 6,0 4,8 6,1 6,4 6,6 11,1 3 2 6 3 ZZO 1027,6 8 0 0,0
17.11.2017 09:00:00 5,7 4,7 5,6 6,0 6,6 11,1 3 1 5 3 ZO 1027,2 8 0 0,0
17.11.2017 08:00:00 5,4 4,7 5,3 5,9 6,7 11,1 0 0 3 2 N 1026,7 7 0 0,1
17.11.2017 07:00:00 5,1 4,5 5,0 5,8 6,7 11,1 0 0 9 5 N 1026,3 3,2 0 0,7
17.11.2017 06:00:00 5,2 3,9 4,8 5,9 6,7 11,2 5 3 11 6 W 1026,1 3,4 0 0,1
17.11.2017 05:00:00 5,2 3,7 4,9 5,9 6,7 11,2 6 3 9 5 W 1025,9 10 0 0,0
17.11.2017 04:00:00 5,5 4,7 5,1 6,0 6,7 11,2 3 1 3 2 WNW 1025,7 10 0 0,0
17.11.2017 03:00:00 5,7 4,5 5,5 6,1 6,7 11,2 0 0 4 2 N 1025,7 13 0 0,0
17.11.2017 02:00:00 5,7 4,2 5,3 6,1 6,7 11,2 4 2 8 4 Z 1025,6 15 0 0,0
17.11.2017 01:00:00 5,7 4,3 5,4 6,1 6,7 11,2 3 1 6 3 Z 1025,5 14 0 0,0
17.11.2017 00:00:00 5,6 4,7 5,5 6,1 6,8 11,2 0 0 8 5 N 1025,6 10 0 0,0
16.11.2017 23:00:00 5,7 4,2 5,4 6,1 6,8 11,2 3 2 6 3 WZW 1025,4 12 0 0,0
16.11.2017 22:00:00 5,5 4,7 5,3 6,1 6,8 11,2 3 2 6 3 Z 1025,3 7 0 0,2
16.11.2017 21:00:00 5,6 4,3 5,2 6,1 6,8 11,2 4 2 9 5 Z 1025,0 6 0 0,1
16.11.2017 20:00:00 5,6 3,9 5,3 6,0 6,9 11,2 2 1 6 3 ZO 1024,9 18 0 0,0
16.11.2017 19:00:00 5,6 3,5 5,1 6,1 6,9 11,2 3 1 5 3 OZO 1024,7 21 0 0,0
16.11.2017 18:00:00 5,4 3,6 3,7 6,4 6,9 11,2 3 2 8 4 ZZO 1024,7 22 0 0,0
16.11.2017 17:00:00 5,8 3,4 5,1 7,0 6,8 11,2 5 3 10 6 OZO 1024,5 22 0 0,0
16.11.2017 16:00:00 6,3 3,4 6,4 7,5 6,6 11,2 5 3 11 6 OZO 1024,4 23 0 0,0
16.11.2017 15:00:00 6,4 3,2 7,1 7,4 6,5 11,2 5 3 10 6 Z 1024,5 29 0 0,0
16.11.2017 14:00:00 6,1 2,9 7,1 7,1 6,4 11,2 6 3 13 7 Z 1025,0 27 0 0,0
16.11.2017 13:00:00 5,8 2,8 6,4 6,5 6,3 11,3 5 3 14 7 Z 1025,4 25 0 0,0
16.11.2017 12:00:00 5,6 2,8 6,6 5,9 6,2 11,3 5 3 12 6 ZZW 1026,0 22 0 0,0
16.11.2017 11:00:00 5,0 2,6 5,5 5,4 6,2 11,3 6 4 11 6 WZW 1026,5 21 0 0,0
16.11.2017 10:00:00 4,6 2,6 4,8 4,9 6,2 11,3 8 5 14 7 WZW 1026,1 17 0 0,0
16.11.2017 09:00:00 4,6 2,9 4,5 4,6 6,3 11,3 3 2 12 7 Z 1025,8 11 0 0,0
16.11.2017 08:00:00 4,1 2,8 3,9 4,4 6,3 11,3 8 4 14 8 ZW 1025,5 10 0 0,0

tt = temperatuur
td = dauwpunt
tt 5cm = temperatuur 5cm
tt -5cm = temperatuur -5cm
tt -20cm = temperatuur -20cm
tt -100cm = temperatuur -100cm
ff = windsnelheid
fx = windstoten
dd = windrichting
ppp = luchtdruk
vv = zicht
sd = Zonneschijnduur
rr = neerslag

Weerstations in de omgeving